Regional Weather Roundup
Issued by NWS Midland/Odessa, TX

Skip options and go directly to product.
Home | Oldest Version | Previous Version | Current Version | All | Text Only | Save Text | Print | Product List | Glossary On

Skip product version selection by date and time.   
037
ASUS44 KMAF 300410
RWRMAF
MIDLAND AREA WEATHER ROUNDUP
NATIONAL WEATHER SERVICE MIDLAND TX
1100 PM CDT WED JUL 29 2015

...IN SOUTHWEST TEXAS AND SOUTHEAST NEW MEXICO...

CITY           SKY/WX    TMP DP  RH WIND       PRES   REMARKS
ALPINE         MOCLDY    79  52  39 SE3       30.27R
ANDREWS        FAIR      85  58  39 E10G21    30.14R
ARTESIA        PTCLDY    86  61  42 E9        30.13R
BIG SPRING     PTCLDY    84  56  38 E10       30.12R
CARLSBAD       PTCLDY    80  60  50 S8        30.09R
DRYDEN           N/A     89  58  34 VRB6      30.05R
FORT STOCKTON  CLEAR     83  49  30 S8        30.11R
GUAD PASS      CLOUDY    76  58  53 E12G24    30.30R
HOBBS          MOCLDY    77  63  61 CALM      30.18R
MARFA          MOCLDY    70  61  73 NE8       30.25R
MIDLAND AIRPK  DRIZZLE   80  66  62 E13       30.13R
MIDLAND INTL   CLOUDY    83  64  52 E16       30.10R
ODESSA         MOCLDY    87  60  40 E16       30.12R
PECOS          CLEAR     81  58  46 SE3       30.07R
PRESIDIO       FAIR      79  66  64 MISG      30.08R
SEMINOLE       PTCLDY    81  61  50 E5        30.16R
SNYDER         PTCLDY    83  65  54 E7        30.12R
WINK           PTCLDY    86  57  37 SW3       30.07R
$$
...OTHER STATIONS IN TEXAS...

CITY           SKY/WX    TMP DP  RH WIND       PRES   REMARKS
ABILENE        CLEAR     85  62  46 SE7       30.07R
AMARILLO       PTCLDY    73  68  84 NE8       30.23R
AUSTIN         CLEAR     84  70  62 S8        30.03R
BROWNSVILLE    PTCLDY    81  76  84 SE8       30.02R
CORPUS CHRISTI MOCLDY    82  75  79 SE9       30.02R
DALLAS FTW     CLEAR     87  64  46 SE5       30.03R
DEL RIO        CLEAR     90  59  35 E10       29.98R
EL PASO        CLOUDY    76  66  71 N15       30.15R
HOUSTON INT    PTCLDY    87  74  64 S5        30.03R
LUBBOCK        PTCLDY    78  65  63 SE10      30.17R
SAN ANGELO     MOCLDY    84  58  40 E6        30.06R
SAN ANTONIO    PTCLDY    87  67  51 SE13G22   30.05R
WACO           CLEAR     89  66  46 SE9       30.02R
WICHITA FALLS  NOT AVBL
$$
...OTHER LOCATIONS IN NEW MEXICO...

CITY           SKY/WX    TMP DP  RH WIND       PRES   REMARKS
ALAMAGORDO     MOCLDY    73  59  60 N9        30.20R
ALBUQUERQUE    CLOUDY    68  59  73 SE10      30.35R
CANNON AFB     NOT AVBL
CLOVIS         PTCLDY    75  64  69 NE10      30.26R
HOLLOMAN AFB   NOT AVBL
ROSWELL        MOCLDY    80  61  52 E8        30.14R
RUIDOSO          N/A    N/A N/A N/A MISG        N/A
SANTA FE       LGT RAIN  62  58  86 NE12      30.43R
TRUTH OR CONSE HVY RAIN  67  63  87 N8        30.27R FOG
TUCUMCARI      MOCLDY    76  64  66 NE8       30.25R
$$

USA.gov is the U.S. government's official web portal to all federal, state and local government web resources and services.